Location: Noordwijk
(52.2400°N, 4.4500°E)
Time: 10:45:55
(UTC+00:00)

FO-99 - Visible Passes

Search period start: 30 November 2022 00:00
Search period end: 10 December 2022 00:00
Orbit: 448 x 470 km, 97.1° (Epoch: 29 November)

Date Brightness Start Highest point End Pass type
(mag) Time Alt. Az. Time Alt. Az. Time Alt. Az.
30 Nov ? 06:42:05 10° NE 06:44:35 18° E 06:47:05 10° SE visible
03 Dec ? 06:38:53 10° NE 06:41:15 17° E 06:43:35 10° SE visible
06 Dec ? 06:35:27 10° NE 06:37:39 15° E 06:39:48 10° SE visible
09 Dec ? 06:31:49 10° NE 06:33:47 14° E 06:35:44 10° ESE visible
